TimeEDT,TemperatureF,Dew PointF,Humidity,Sea Level PressureIn,VisibilityMPH,Wind Direction,Wind SpeedMPH,Gust SpeedMPH,PrecipitationIn,Events,Conditions,WindDirDegrees,DateUTC
12:53 AM,71.1,69.1,93,29.96,9.0,Calm,Calm,-,N/A,,Overcast,0,2012-09-04 04:53:00
1:53 AM,72.0,69.1,91,29.95,9.0,Calm,Calm,-,N/A,,Overcast,0,2012-09-04 05:53:00
2:33 AM,71.6,69.8,94,30.02,9.0,Calm,Calm,-,N/A,,Overcast,0,2012-09-04 06:33:00
2:53 AM,72.0,70.0,93,29.94,9.0,Calm,Calm,-,N/A,,Overcast,0,2012-09-04 06:53:00
3:26 AM,71.6,69.8,94,30.01,1.8,Calm,Calm,-,N/A,,Overcast,0,2012-09-04 07:26:00
3:34 AM,71.6,69.8,94,30.01,3.0,Calm,Calm,-,N/A,,Overcast,0,2012-09-04 07:34:00
3:53 AM,71.1,70.0,96,29.94,5.0,Calm,Calm,-,N/A,,Overcast,0,2012-09-04 07:53:00
4:23 AM,71.6,69.8,94,29.99,2.0,Calm,Calm,-,N/A,,Overcast,0,2012-09-04 08:23:00
4:39 AM,71.6,69.8,94,29.99,1.2,Calm,Calm,-,N/A,,Overcast,0,2012-09-04 08:39:00
4:53 AM,71.1,70.0,96,29.93,1.2,Calm,Calm,-,N/A,,Overcast,0,2012-09-04 08:53:00
5:12 AM,71.6,69.8,94,29.99,3.0,SSW,3.5,-,N/A,,Overcast,200,2012-09-04 09:12:00
5:53 AM,71.1,70.0,96,29.94,2.5,South,3.5,-,N/A,,Overcast,190,2012-09-04 09:53:00
6:21 AM,71.6,69.8,94,30.00,5.0,South,4.6,-,0.00,Rain,Light Rain,190,2012-09-04 10:21:00
6:31 AM,71.6,69.8,94,30.00,8.0,South,3.5,-,0.01,Rain,Light Rain,180,2012-09-04 10:31:00
6:53 AM,72.0,70.0,93,29.95,6.0,Calm,Calm,-,0.01,Rain,Light Rain,0,2012-09-04 10:53:00
7:00 AM,71.6,69.8,94,30.01,5.0,Calm,Calm,-,0.00,Rain,Light Rain,0,2012-09-04 11:00:00
7:21 AM,71.6,69.8,94,30.01,2.0,Calm,Calm,-,0.01,Rain,Light Rain,0,2012-09-04 11:21:00
7:53 AM,72.0,70.0,93,29.95,2.0,Calm,Calm,-,0.01,,Overcast,0,2012-09-04 11:53:00
8:00 AM,71.6,69.8,94,30.01,4.0,Calm,Calm,-,N/A,,Overcast,0,2012-09-04 12:00:00
8:07 AM,71.6,69.8,94,30.01,3.0,Calm,Calm,-,N/A,,Overcast,0,2012-09-04 12:07:00
8:23 AM,71.6,69.8,94,30.01,1.5,Calm,Calm,-,0.00,Rain,Light Rain,0,2012-09-04 12:23:00
8:53 AM,72.0,71.1,97,29.95,1.2,Calm,Calm,-,0.01,Rain,Light Rain,0,2012-09-04 12:53:00
9:05 AM,71.6,71.6,100,30.01,3.0,Calm,Calm,-,0.00,,Overcast,0,2012-09-04 13:05:00
9:14 AM,71.6,71.6,100,30.01,2.0,Calm,Calm,-,0.00,Rain,Light Rain,0,2012-09-04 13:14:00
9:53 AM,73.0,71.1,93,29.95,2.0,Variable,3.5,-,0.01,,Overcast,0,2012-09-04 13:53:00
10:19 AM,73.4,71.6,94,30.02,2.0,South,3.5,-,N/A,,Overcast,190,2012-09-04 14:19:00
10:53 AM,73.9,71.1,91,29.96,2.0,Calm,Calm,-,0.00,,Overcast,0,2012-09-04 14:53:00
11:00 AM,73.4,71.6,94,30.02,8.0,South,4.6,-,N/A,,Overcast,190,2012-09-04 15:00:00
11:21 AM,75.2,71.6,89,30.02,10.0,Variable,4.6,-,N/A,,Overcast,0,2012-09-04 15:21:00
11:31 AM,75.2,71.6,89,30.02,10.0,Variable,4.6,-,N/A,,Overcast,0,2012-09-04 15:31:00
11:40 AM,75.2,71.6,89,30.02,10.0,Variable,3.5,-,N/A,,Overcast,0,2012-09-04 15:40:00
11:53 AM,75.9,70.0,82,29.95,10.0,South,8.1,-,N/A,,Mostly Cloudy,180,2012-09-04 15:53:00
12:13 PM,75.2,69.8,83,30.01,10.0,Variable,4.6,-,N/A,,Overcast,0,2012-09-04 16:13:00
12:43 PM,77.0,71.6,83,30.01,10.0,Variable,3.5,-,N/A,,Overcast,0,2012-09-04 16:43:00
12:51 PM,77.0,69.8,78,30.01,10.0,SSW,8.1,-,N/A,,Overcast,200,2012-09-04 16:51:00
12:53 PM,77.0,70.0,79,29.94,10.0,Variable,5.8,-,N/A,,Overcast,0,2012-09-04 16:53:00
1:53 PM,77.0,70.0,79,29.93,10.0,South,9.2,-,N/A,,Overcast,190,2012-09-04 17:53:00
2:46 PM,77.0,69.8,78,29.98,10.0,South,5.8,-,0.00,,Overcast,190,2012-09-04 18:46:00
2:53 PM,77.0,70.0,79,29.91,10.0,South,6.9,-,0.00,,Overcast,190,2012-09-04 18:53:00
3:25 PM,75.2,69.8,83,29.96,10.0,SSW,5.8,-,0.00,,Overcast,200,2012-09-04 19:25:00
3:39 PM,77.0,69.8,78,29.96,10.0,SSW,5.8,-,0.00,,Overcast,200,2012-09-04 19:39:00
3:53 PM,78.8,69.8,74,29.96,10.0,South,4.6,-,N/A,,Overcast,190,2012-09-04 19:53:00
4:22 PM,78.8,69.8,74,29.95,10.0,SSW,5.8,-,0.00,Rain,Light Rain,210,2012-09-04 20:22:00
4:38 PM,78.8,69.8,74,29.95,10.0,SSW,4.6,-,0.00,,Overcast,200,2012-09-04 20:38:00
4:53 PM,79.0,70.0,74,29.88,10.0,SSW,4.6,-,0.00,,Overcast,200,2012-09-04 20:53:00
5:36 PM,78.8,69.8,74,29.95,10.0,South,3.5,-,N/A,,Overcast,170,2012-09-04 21:36:00
5:53 PM,79.0,70.0,74,29.89,10.0,Calm,Calm,-,N/A,,Overcast,0,2012-09-04 21:53:00
6:03 PM,78.8,71.6,78,29.95,10.0,Variable,3.5,-,N/A,,Overcast,0,2012-09-04 22:03:00
6:53 PM,78.1,71.1,79,29.88,10.0,Calm,Calm,-,N/A,,Mostly Cloudy,0,2012-09-04 22:53:00
7:10 PM,78.8,71.6,78,29.95,10.0,SSW,3.5,-,N/A,,Overcast,210,2012-09-04 23:10:00
7:50 PM,75.2,71.6,89,29.95,10.0,Variable,4.6,-,N/A,,Overcast,0,2012-09-04 23:50:00
7:51 PM,75.0,71.1,87,29.89,10.0,Variable,5.8,-,N/A,,Overcast,0,2012-09-04 23:51:00
8:18 PM,73.4,71.6,94,29.97,10.0,Variable,3.5,-,N/A,,Overcast,0,2012-09-05 00:18:00
8:31 PM,73.4,71.6,94,29.97,10.0,South,5.8,-,N/A,,Overcast,190,2012-09-05 00:31:00
8:48 PM,73.4,71.6,94,29.98,10.0,Calm,Calm,-,N/A,,Overcast,0,2012-09-05 00:48:00
8:53 PM,73.0,71.1,93,29.92,10.0,South,4.6,-,N/A,,Overcast,180,2012-09-05 00:53:00
9:53 PM,73.0,71.1,93,29.92,8.0,Variable,3.5,-,0.00,Rain,Light Rain,0,2012-09-05 01:53:00
10:17 PM,73.4,71.6,94,29.98,10.0,SSW,5.8,-,0.01,Rain,Light Rain,200,2012-09-05 02:17:00
10:28 PM,73.4,71.6,94,29.98,10.0,SSW,5.8,-,0.01,Rain,Light Rain,210,2012-09-05 02:28:00
10:53 PM,73.0,71.1,93,29.91,9.0,SSW,5.8,-,0.02,Rain,Light Rain,200,2012-09-05 02:53:00